Location: Unspecified
(0.0000°N, 0.0000°E)
Time: 12:34:42
(UTC+00:00)

Cosmos 2058 - Pass Details

Date: 25 April 2019
Orbit: 561 x 585 km, 82.5° (Epoch: 23 May)

Event Time Altitude Azimuth Distance (km) Brightness Sun altitude
Rises 18:33:46 0° 2° (N) 2,735 6.5 -8.7°
Reaches altitude 10° 18:35:57 10° 6° (N) 1,842 5.6 -9.2°
Maximum altitude 18:39:57 60° 86° (E) 644 2.9 -10.2°
Drops below altitude 10° 18:43:59 10° 166° (SSE) 1,853 5.2 -11.2°
Sets 18:46:10 0° 170° (S) 2,753 6.2 -11.7°
